TimeCST,TemperatureF,Dew PointF,Humidity,Sea Level PressureIn,VisibilityMPH,Wind Direction,Wind SpeedMPH,Gust SpeedMPH,PrecipitationIn,Events,Conditions,WindDirDegrees,DateUTC
12:55 AM,30.9,26.6,84,30.09,10.0,NE,4.6,-,N/A,,Clear,40,2012-11-26 06:55:00
1:55 AM,28.6,26.2,91,30.10,10.0,NE,6.9,-,N/A,,Clear,40,2012-11-26 07:55:00
2:55 AM,30.2,27.5,90,30.11,10.0,NE,10.4,-,N/A,,Clear,40,2012-11-26 08:55:00
3:55 AM,30.4,27.3,88,30.12,10.0,NE,12.7,-,N/A,,Clear,50,2012-11-26 09:55:00
4:55 AM,29.7,27.1,90,30.14,10.0,NE,11.5,-,N/A,,Clear,40,2012-11-26 10:55:00
5:55 AM,28.6,26.8,93,30.18,10.0,NNE,10.4,-,N/A,,Clear,30,2012-11-26 11:55:00
6:55 AM,29.1,25.9,88,30.19,10.0,NE,12.7,-,N/A,,Mostly Cloudy,50,2012-11-26 12:55:00
7:55 AM,30.7,25.0,79,30.25,10.0,NNE,13.8,-,N/A,,Mostly Cloudy,20,2012-11-26 13:55:00
8:55 AM,33.6,26.2,74,30.30,10.0,NNE,13.8,-,N/A,,Clear,30,2012-11-26 14:55:00
9:55 AM,37.6,26.4,64,30.34,10.0,NNE,18.4,-,N/A,,Scattered Clouds,30,2012-11-26 15:55:00
10:55 AM,39.4,25.7,58,30.37,10.0,NNE,17.3,-,N/A,,Partly Cloudy,30,2012-11-26 16:55:00
11:55 AM,39.6,23.9,54,30.38,10.0,NNE,20.7,-,N/A,,Overcast,30,2012-11-26 17:55:00
12:55 PM,39.9,24.1,53,30.38,10.0,NNE,17.3,24.2,N/A,,Mostly Cloudy,20,2012-11-26 18:55:00
1:55 PM,41.4,25.3,53,30.39,10.0,NNE,12.7,-,N/A,,Overcast,20,2012-11-26 19:55:00
2:55 PM,41.9,26.1,53,30.38,10.0,NNE,15.0,-,N/A,,Partly Cloudy,30,2012-11-26 20:55:00
3:55 PM,40.3,26.8,59,30.39,10.0,NNE,10.4,19.6,N/A,,Clear,30,2012-11-26 21:55:00
4:55 PM,37.0,26.8,66,30.42,10.0,North,10.4,-,N/A,,Scattered Clouds,360,2012-11-26 22:55:00
4:56 PM,37.4,26.6,65,30.42,10.0,North,9.2,-,N/A,,Mostly Cloudy,360,2012-11-26 22:56:00
5:47 PM,33.8,26.6,75,30.45,10.0,North,11.5,-,N/A,,Scattered Clouds,360,2012-11-26 23:47:00
5:51 PM,33.8,26.6,75,30.45,10.0,North,10.4,-,N/A,,Mostly Cloudy,360,2012-11-26 23:51:00
5:55 PM,34.3,26.6,73,30.45,10.0,North,9.2,-,N/A,,Mostly Cloudy,360,2012-11-26 23:55:00
5:59 PM,33.8,26.6,75,30.45,10.0,North,8.1,-,N/A,,Scattered Clouds,360,2012-11-26 23:59:00
6:55 PM,32.0,26.2,79,30.47,10.0,North,5.8,-,N/A,,Clear,360,2012-11-27 00:55:00
7:55 PM,28.9,25.3,86,30.49,10.0,North,6.9,-,N/A,,Clear,350,2012-11-27 01:55:00
8:55 PM,26.8,23.2,86,30.51,10.0,North,4.6,-,N/A,,Clear,350,2012-11-27 02:55:00
9:55 PM,24.3,21.4,89,30.51,10.0,Calm,Calm,-,N/A,,Clear,0,2012-11-27 03:55:00
10:55 PM,22.1,20.7,94,30.52,10.0,Calm,Calm,-,N/A,,Clear,0,2012-11-27 04:55:00
11:55 PM,21.7,20.7,96,30.52,10.0,Calm,Calm,-,N/A,,Clear,0,2012-11-27 05:55:00